| time (UTC) | temp F | wind direction | speed knots | gust knots | rain 1hr in | rain 24hr in | rain mn in | humidity % | barometer mb |
| 20260506200032 | 59 | 63 | 0.0 | 4.3 | 0.00 | 0.05 | 0.01 | 82 | 1014.9 |
| 20260506194517 | 58 | 282 | 0.9 | 5.2 | 0.00 | 0.05 | 0.01 | 83 | 1013.7 |
| 20260506193015 | 58 | 257 | 0.0 | 4.3 | 0.00 | 0.05 | 0.01 | 83 | 1014.3 |
| 20260506191515 | 58 | 128 | 0.0 | 4.3 | 0.00 | 0.05 | 0.01 | 83 | 1014.5 |
| 20260506190013 | 58 | 93 | 0.0 | 2.6 | 0.00 | 0.05 | 0.01 | 82 | 1014.1 |
| 20260506184513 | 58 | 37 | 0.0 | 2.6 | 0.00 | 0.05 | 0.01 | 82 | 1014.3 |
| 20260506183013 | 58 | 310 | 0.9 | 5.2 | 0.00 | 0.05 | 0.01 | 82 | 1013.9 |
| 20260506181516 | 58 | 137 | 1.7 | 4.3 | 0.00 | 0.05 | 0.01 | 82 | 1012.6 |
| 20260506180017 | 58 | 96 | 1.7 | 6.1 | 0.00 | 0.05 | 0.01 | 82 | 1012.4 |
| 20260506174511 | 57 | 153 | 1.7 | 3.5 | 0.00 | 0.05 | 0.01 | 85 | 1013.2 |
| 20260506173011 | 56 | 40 | 0.9 | 3.5 | 0.00 | 0.05 | 0.01 | 86 | 1014.3 |
| 20260506171510 | 56 | 100 | 1.7 | 5.2 | 0.00 | 0.05 | 0.01 | 85 | 1014.8 |
| 20260506170008 | 57 | 94 | 0.9 | 4.3 | 0.00 | 0.05 | 0.01 | 83 | 1013.6 |
| 20260506164508 | 58 | 99 | 0.9 | 6.1 | 0.01 | 0.05 | 0.01 | 82 | 1014.2 |
| 20260506163008 | 57 | 70 | 0.9 | 3.5 | 0.01 | 0.05 | 0.01 | 86 | 1014.3 |
| 20260506161507 | 55 | 106 | 0.9 | 5.2 | 0.01 | 0.05 | 0.01 | 87 | 1013.6 |
| 20260506160013 | 55 | 41 | 0.9 | 4.3 | 0.01 | 0.05 | 0.01 | 86 | 1014.8 |
| 20260506154505 | 55 | 117 | 0.9 | 4.3 | 0.00 | 0.04 | 0.00 | 84 | 1015.0 |
| 20260506153004 | 55 | 258 | 0.0 | 1.7 | 0.00 | 0.04 | 0.00 | 82 | 1015.4 |
| 20260506151501 | 55 | 209 | 0.9 | 6.1 | 0.00 | 0.04 | 0.00 | 83 | 1014.6 |
| 20260506150059 | 55 | 333 | 0.0 | 3.5 | 0.00 | 0.04 | 0.00 | 83 | 1014.3 |
| 20260506144558 | 55 | 131 | 0.9 | 2.6 | 0.00 | 0.04 | 0.00 | 83 | 1014.4 |
| 20260506143056 | 54 | 141 | 0.0 | 4.3 | 0.00 | 0.04 | 0.00 | 84 | 1014.0 |
| 20260506141607 | 54 | 141 | 0.0 | 2.6 | 0.00 | 0.04 | 0.00 | 85 | 1013.9 |
| 20260506140050 | 54 | 118 | 0.0 | 3.5 | 0.00 | 0.04 | 0.00 | 84 | 1013.4 |
| 20260506134547 | 54 | 101 | 0.9 | 4.3 | 0.00 | 0.04 | 0.00 | 84 | 1013.5 |
| 20260506133045 | 54 | 134 | 0.9 | 4.3 | 0.00 | 0.04 | 0.00 | 84 | 1013.0 |
| 20260506131544 | 54 | 46 | 0.9 | 4.3 | 0.00 | 0.04 | 0.00 | 84 | 1013.1 |
| 20260506130042 | 54 | 94 | 1.7 | 4.3 | 0.00 | 0.04 | 0.00 | 84 | 1013.1 |
| 20260506124541 | 54 | 68 | 0.9 | 7.0 | 0.00 | 0.04 | 0.00 | 84 | 1012.8 |
| 20260506123042 | 54 | 91 | 1.7 | 4.3 | 0.00 | 0.04 | 0.00 | 83 | 1012.3 |
| 20260506121534 | 54 | 28 | 0.0 | 3.5 | 0.00 | 0.04 | 0.00 | 82 | 1012.7 |
| 20260506120055 | 55 | 113 | 0.9 | 4.3 | 0.00 | 0.04 | 0.00 | 81 | 1012.3 |
| 20260506114530 | 55 | 31 | 0.9 | 5.2 | 0.00 | 0.04 | 0.00 | 81 | 1011.7 |
| 20260506113029 | 55 | 91 | 1.7 | 4.3 | 0.00 | 0.04 | 0.00 | 80 | 1011.8 |
| 20260506111526 | 56 | 229 | 0.0 | 3.5 | 0.00 | 0.04 | 0.00 | 80 | 1011.4 |
| 20260506110025 | 56 | 166 | 0.0 | 4.3 | 0.00 | 0.04 | 0.00 | 79 | 1011.2 |
| 20260506104520 | 56 | 81 | 0.9 | 3.5 | 0.00 | 0.04 | 0.00 | 78 | 1010.8 |
| 20260506103027 | 56 | 120 | 0.9 | 3.5 | 0.00 | 0.04 | 0.00 | 78 | 1010.7 |
| 20260506101518 | 57 | 91 | 1.7 | 5.2 | 0.00 | 0.04 | 0.00 | 77 | 1010.4 |
| 20260506100014 | 57 | 6 | 0.9 | 3.5 | 0.00 | 0.04 | 0.00 | 77 | 1010.4 |
| 20260506094526 | 57 | 94 | 0.0 | 1.7 | 0.00 | 0.04 | 0.00 | 77 | 1010.3 |
| 20260506093016 | 57 | 20 | 0.9 | 3.5 | 0.00 | 0.04 | 0.00 | 76 | 1010.3 |
| 20260506091509 | 58 | 105 | 0.9 | 3.5 | 0.00 | 0.04 | 0.00 | 77 | 1010.0 |
| 20260506090006 | 58 | 91 | 0.9 | 3.5 | 0.00 | 0.04 | 0.00 | 77 | 1009.8 |
| 20260506084506 | 58 | 94 | 0.0 | 2.6 | 0.00 | 0.04 | 0.00 | 78 | 1009.8 |
| 20260506083004 | 58 | 75 | 0.0 | 3.5 | 0.00 | 0.04 | 0.00 | 78 | 1009.3 |
| 20260506081505 | 58 | 320 | 0.0 | 3.5 | 0.00 | 0.04 | 0.00 | 78 | 1009.6 |
| 20260506073104 | 59 | 86 | 0.9 | 3.5 | 0.00 | 0.04 | 0.00 | 77 | 1009.8 |
| 20260506071558 | 59 | 115 | 0.9 | 2.6 | 0.00 | 0.04 | 0.00 | 78 | 1009.7 |
| 20260506070115 | 59 | 30 | 0.0 | 3.5 | 0.00 | 0.04 | 0.00 | 78 | 1009.7 |
| 20260506061550 | 61 | 38 | 0.9 | 5.2 | 0.00 | 0.04 | 0.00 | 78 | 1009.4 |
| 20260506044549 | 65 | 93 | 0.9 | 3.5 | 0.00 | 0.04 | 0.04 | 80 | 1008.8 |
| 20260506043029 | 66 | 98 | 1.7 | 4.3 | 0.00 | 0.04 | 0.04 | 79 | 1008.7 |
| 20260506041526 | 67 | 182 | 1.7 | 4.3 | 0.00 | 0.04 | 0.04 | 79 | 1008.3 |
| 20260506040022 | 68 | 109 | 0.9 | 3.5 | 0.00 | 0.04 | 0.04 | 79 | 1008.4 |
| 20260506034519 | 69 | 304 | 0.0 | 2.6 | 0.00 | 0.04 | 0.04 | 80 | 1008.0 |
| 20260506033015 | 70 | 128 | 0.0 | 1.7 | 0.00 | 0.04 | 0.04 | 80 | 1007.8 |
| 20260506031517 | 70 | 307 | 0.9 | 3.5 | 0.00 | 0.04 | 0.04 | 79 | 1007.8 |
| 20260506030012 | 71 | 42 | 0.0 | 4.3 | 0.00 | 0.04 | 0.04 | 79 | 1007.4 |
| 20260506024509 | 73 | 79 | 1.7 | 7.0 | 0.00 | 0.04 | 0.04 | 78 | 1006.8 |
| 20260506023007 | 73 | 103 | 0.0 | 1.7 | 0.00 | 0.04 | 0.04 | 81 | 1005.9 |
| 20260506021507 | 74 | 1 | 0.0 | 1.7 | 0.00 | 0.04 | 0.04 | 80 | 1006.2 |
| 20260506020005 | 74 | 84 | 0.0 | 1.7 | 0.00 | 0.04 | 0.04 | 80 | 1005.9 |
| 20260506014510 | 75 | 49 | 0.0 | 0.9 | 0.00 | 0.04 | 0.04 | 80 | 1005.6 |
| 20260506013005 | 77 | 23 | 0.9 | 5.2 | 0.03 | 0.04 | 0.04 | 82 | 1005.7 |
| 20260506011504 | 78 | 240 | 0.0 | 1.7 | 0.04 | 0.04 | 0.04 | 86 | 1004.9 |
| 20260506010003 | 78 | 122 | 0.0 | 1.7 | 0.04 | 0.04 | 0.04 | 86 | 1004.7 |
| 20260506004503 | 79 | 240 | 0.0 | 3.5 | 0.04 | 0.04 | 0.04 | 84 | 1004.9 |
| 20260506003003 | 80 | 204 | 0.0 | 6.1 | 0.01 | 0.01 | 0.01 | 81 | 1004.7 |
| 20260506001502 | 81 | 215 | 0.9 | 7.0 | 0.00 | 0.00 | 0.00 | 77 | 1004.4 |
| 20260506000002 | 82 | 226 | 2.6 | 5.2 | 0.00 | 0.00 | 0.00 | 74 | 1003.7 |
| 20260505234502 | 83 | 175 | 1.7 | 4.3 | 0.00 | 0.00 | 0.00 | 74 | 1003.7 |
| 20260505233101 | 84 | 244 | 2.6 | 9.6 | 0.00 | 0.00 | 0.00 | 72 | 1003.7 |
| 20260505233001 | 84 | 123 | 2.6 | 9.6 | 0.00 | 0.00 | 0.00 | 72 | 1003.7 |
| 20260505231601 | 85 | 181 | 1.7 | 5.2 | 0.00 | 0.00 | 0.00 | 71 | 1003.7 |
| 20260505230058 | 86 | 224 | 0.9 | 10.4 | 0.00 | 0.00 | 0.00 | 69 | 1003.5 |
| 20260505224558 | 86 | 112 | 2.6 | 11.3 | 0.00 | 0.00 | 0.00 | 68 | 1003.7 |
| 20260505223156 | 87 | 44 | 2.6 | 7.8 | 0.00 | 0.00 | 0.00 | 67 | 1003.3 |
| 20260505221608 | 88 | 288 | 1.7 | 5.2 | 0.00 | 0.00 | 0.00 | 66 | 1003.5 |
| 20260505220137 | 89 | 148 | 1.7 | 7.0 | 0.00 | 0.00 | 0.00 | 66 | 1003.4 |
| 20260505214614 | 88 | 91 | 2.6 | 7.0 | 0.00 | 0.00 | 0.00 | 66 | 1003.7 |
| 20260505213051 | 88 | 233 | 3.5 | 8.7 | 0.00 | 0.00 | 0.00 | 66 | 1003.7 |
| 20260505211606 | 88 | 98 | 2.6 | 11.3 | 0.00 | 0.00 | 0.00 | 66 | 1003.7 |
| 20260505210047 | 88 | 241 | 3.5 | 9.6 | 0.00 | 0.00 | 0.00 | 66 | 1003.8 |
| 20260505204546 | 87 | 248 | 3.5 | 9.6 | 0.00 | 0.00 | 0.00 | 66 | 1004.2 |
| 20260505203046 | 86 | 269 | 1.7 | 11.3 | 0.00 | 0.00 | 0.00 | 68 | 1004.2 |
| 20260505201543 | 85 | 262 | 2.6 | 11.3 | 0.00 | 0.00 | 0.00 | 68 | 1004.3 |